| time (UTC) | temp F | wind direction | speed MPH | gust MPH | rain 1hr in | rain 24hr in | rain mn in | humidity % | barometer mb |
| 20260506155547 | 51 | 351 | 9.0 | 19.0 | 0.00 | 0.17 | 0.15 | 39 | 1022.9 |
| 20260506155043 | 50 | 7 | 12.0 | 18.0 | 0.00 | 0.17 | 0.15 | 38 | 1022.9 |
| 20260506154543 | 50 | 321 | 9.0 | 17.0 | 0.00 | 0.17 | 0.15 | 38 | 1022.8 |
| 20260506154044 | 50 | 354 | 9.0 | 17.0 | 0.00 | 0.17 | 0.15 | 40 | 1022.7 |
| 20260506153542 | 50 | 352 | 10.0 | 17.0 | 0.00 | 0.17 | 0.15 | 38 | 1022.7 |
| 20260506153104 | 50 | 1 | 10.0 | 17.0 | 0.00 | 0.17 | 0.15 | 37 | 1022.6 |
| 20260506152543 | 50 | 27 | 9.0 | 19.0 | 0.00 | 0.17 | 0.15 | 39 | 1022.6 |
| 20260506152041 | 50 | 323 | 10.0 | 19.0 | 0.00 | 0.17 | 0.15 | 34 | 1022.7 |
| 20260506151544 | 50 | 16 | 11.0 | 19.0 | 0.00 | 0.17 | 0.15 | 36 | 1022.5 |
| 20260506151044 | 50 | 49 | 10.0 | 19.0 | 0.00 | 0.17 | 0.15 | 33 | 1022.4 |
| 20260506150538 | 50 | 317 | 10.0 | 19.0 | 0.00 | 0.17 | 0.15 | 35 | 1022.3 |
| 20260506150047 | 50 | 325 | 6.0 | 16.0 | 0.00 | 0.17 | 0.15 | 40 | 1022.1 |
| 20260506145538 | 50 | 347 | 8.0 | 0.0 | 0.00 | 0.00 | 0.15 | 40 | 1022.1 |
| 20260506145037 | 50 | 347 | 6.0 | 15.0 | 0.00 | 0.17 | 0.15 | 46 | 1022.1 |
| 20260506144536 | 50 | 37 | 7.0 | 13.0 | 0.00 | 0.17 | 0.15 | 47 | 1022.1 |
| 20260506144036 | 50 | 4 | 5.0 | 13.0 | 0.00 | 0.17 | 0.15 | 47 | 1022.0 |
| 20260506143536 | 50 | 356 | 8.0 | 11.0 | 0.00 | 0.17 | 0.15 | 46 | 1022.0 |
| 20260506143035 | 49 | 13 | 4.0 | 8.0 | 0.00 | 0.17 | 0.15 | 47 | 1021.8 |
| 20260506142533 | 49 | 309 | 3.0 | 9.0 | 0.00 | 0.17 | 0.15 | 46 | 1021.9 |
| 20260506142033 | 49 | 349 | 5.0 | 10.0 | 0.00 | 0.17 | 0.15 | 48 | 1021.9 |
| 20260506141533 | 49 | 336 | 5.0 | 10.0 | 0.00 | 0.17 | 0.15 | 49 | 1021.9 |
| 20260506141033 | 48 | 342 | 3.0 | 7.0 | 0.00 | 0.17 | 0.15 | 50 | 1021.9 |
| 20260506140634 | 48 | 359 | 3.0 | 8.0 | 0.00 | 0.17 | 0.15 | 51 | 1021.9 |
| 20260506140032 | 48 | 20 | 4.0 | 10.0 | 0.00 | 0.17 | 0.15 | 50 | 1021.6 |
| 20260506135531 | 48 | 23 | 5.0 | 10.0 | 0.00 | 0.17 | 0.15 | 50 | 1021.5 |
| 20260506135030 | 47 | 305 | 3.0 | 8.0 | 0.00 | 0.17 | 0.15 | 52 | 1021.5 |
| 20260506134532 | 47 | 3 | 3.0 | 8.0 | 0.00 | 0.17 | 0.15 | 55 | 1021.5 |
| 20260506134029 | 46 | 337 | 2.0 | 5.0 | 0.00 | 0.17 | 0.15 | 60 | 1021.5 |
| 20260506133528 | 46 | 329 | 2.0 | 5.0 | 0.00 | 0.17 | 0.15 | 62 | 1021.3 |
| 20260506133028 | 45 | 333 | 1.0 | 3.0 | 0.00 | 0.17 | 0.15 | 65 | 1021.2 |
| 20260506132531 | 45 | 300 | 0.0 | 2.0 | 0.00 | 0.17 | 0.15 | 68 | 1021.0 |
| 20260506132026 | 44 | 271 | 1.0 | 3.0 | 0.00 | 0.17 | 0.15 | 70 | 1020.9 |
| 20260506131533 | 44 | 288 | 0.0 | 3.0 | 0.00 | 0.17 | 0.15 | 70 | 1020.8 |
| 20260506131024 | 43 | 281 | 1.0 | 4.0 | 0.00 | 0.17 | 0.15 | 71 | 1020.7 |
| 20260506130523 | 43 | 281 | 2.0 | 3.0 | 0.00 | 0.17 | 0.15 | 72 | 1020.6 |
| 20260506130023 | 43 | 278 | 1.0 | 3.0 | 0.00 | 0.17 | 0.15 | 71 | 1020.6 |
| 20260506125521 | 43 | 276 | 0.0 | 3.0 | 0.00 | 0.17 | 0.15 | 71 | 1020.4 |
| 20260506125021 | 43 | 293 | 0.0 | 4.0 | 0.00 | 0.17 | 0.15 | 71 | 1020.4 |
| 20260506124521 | 43 | 275 | 0.0 | 4.0 | 0.00 | 0.17 | 0.15 | 71 | 1020.4 |
| 20260506124020 | 43 | 276 | 1.0 | 4.0 | 0.00 | 0.17 | 0.15 | 70 | 1020.1 |
| 20260506123519 | 43 | 254 | 1.0 | 4.0 | 0.00 | 0.17 | 0.15 | 70 | 1020.0 |
| 20260506123019 | 43 | 274 | 1.0 | 4.0 | 0.00 | 0.17 | 0.15 | 70 | 1020.0 |
| 20260506122519 | 43 | 282 | 1.0 | 4.0 | 0.00 | 0.17 | 0.15 | 69 | 1020.0 |
| 20260506122018 | 43 | 286 | 2.0 | 5.0 | 0.00 | 0.17 | 0.15 | 70 | 1019.9 |
| 20260506121518 | 43 | 309 | 3.0 | 7.0 | 0.00 | 0.17 | 0.15 | 69 | 1019.9 |
| 20260506121017 | 43 | 271 | 2.0 | 7.0 | 0.00 | 0.17 | 0.15 | 68 | 1019.8 |
| 20260506120516 | 43 | 295 | 1.0 | 4.0 | 0.00 | 0.17 | 0.15 | 67 | 1019.9 |
| 20260506120019 | 43 | 291 | 1.0 | 4.0 | 0.00 | 0.17 | 0.15 | 66 | 1019.6 |
| 20260506115516 | 43 | 290 | 0.0 | 5.0 | 0.00 | 0.17 | 0.15 | 67 | 1019.8 |
| 20260506115015 | 43 | 297 | 2.0 | 6.0 | 0.00 | 0.17 | 0.15 | 67 | 1019.6 |
| 20260506114521 | 43 | 276 | 3.0 | 6.0 | 0.00 | 0.17 | 0.15 | 66 | 1019.6 |
| 20260506114015 | 43 | 281 | 1.0 | 6.0 | 0.00 | 0.17 | 0.15 | 67 | 1019.6 |
| 20260506113515 | 43 | 295 | 2.0 | 6.0 | 0.00 | 0.17 | 0.15 | 67 | 1019.7 |
| 20260506113027 | 43 | 291 | 2.0 | 5.0 | 0.00 | 0.17 | 0.15 | 67 | 1019.7 |
| 20260506112513 | 43 | 295 | 2.0 | 6.0 | 0.00 | 0.17 | 0.15 | 67 | 1019.6 |
| 20260506112014 | 43 | 289 | 3.0 | 8.0 | 0.00 | 0.17 | 0.15 | 67 | 1019.5 |
| 20260506111513 | 43 | 318 | 4.0 | 8.0 | 0.00 | 0.17 | 0.15 | 66 | 1019.5 |
| 20260506111013 | 42 | 304 | 3.0 | 8.0 | 0.00 | 0.17 | 0.15 | 67 | 1019.4 |
| 20260506110513 | 42 | 349 | 3.0 | 10.0 | 0.00 | 0.17 | 0.15 | 68 | 1019.5 |
| 20260506110013 | 42 | 316 | 4.0 | 10.0 | 0.00 | 0.17 | 0.15 | 68 | 1019.6 |
| 20260506105512 | 42 | 318 | 3.0 | 13.0 | 0.00 | 0.17 | 0.15 | 69 | 1019.5 |
| 20260506105011 | 43 | 335 | 4.0 | 13.0 | 0.00 | 0.17 | 0.15 | 69 | 1019.4 |
| 20260506104510 | 43 | 6 | 6.0 | 13.0 | 0.00 | 0.17 | 0.15 | 68 | 1019.4 |
| 20260506104010 | 43 | 323 | 6.0 | 12.0 | 0.00 | 0.17 | 0.15 | 69 | 1019.3 |
| 20260506103508 | 42 | 305 | 5.0 | 12.0 | 0.01 | 0.17 | 0.15 | 70 | 1019.1 |
| 20260506103012 | 42 | 314 | 5.0 | 11.0 | 0.01 | 0.17 | 0.15 | 71 | 1018.9 |
| 20260506102507 | 42 | 11 | 4.0 | 12.0 | 0.01 | 0.17 | 0.15 | 72 | 1018.7 |
| 20260506102008 | 42 | 314 | 5.0 | 13.0 | 0.01 | 0.17 | 0.15 | 73 | 1018.9 |
| 20260506101508 | 42 | 311 | 6.0 | 13.0 | 0.01 | 0.17 | 0.15 | 74 | 1018.5 |
| 20260506101004 | 42 | 333 | 5.0 | 9.0 | 0.01 | 0.17 | 0.15 | 77 | 1018.5 |
| 20260506100504 | 42 | 325 | 4.0 | 9.0 | 0.01 | 0.17 | 0.15 | 78 | 1018.3 |
| 20260506100004 | 42 | 292 | 3.0 | 9.0 | 0.01 | 0.17 | 0.15 | 78 | 1018.2 |
| 20260506095501 | 42 | 308 | 5.0 | 9.0 | 0.03 | 0.17 | 0.15 | 78 | 1018.1 |
| 20260506095100 | 42 | 308 | 4.0 | 11.0 | 0.03 | 0.17 | 0.15 | 79 | 1018.0 |
| 20260506094600 | 42 | 313 | 4.0 | 11.0 | 0.04 | 0.17 | 0.15 | 79 | 1017.8 |
| 20260506094103 | 42 | 331 | 4.0 | 8.0 | 0.07 | 0.17 | 0.15 | 82 | 1017.7 |
| 20260506093559 | 42 | 321 | 3.0 | 8.0 | 0.09 | 0.16 | 0.14 | 84 | 1017.6 |
| 20260506093058 | 42 | 345 | 3.0 | 8.0 | 0.11 | 0.16 | 0.14 | 85 | 1017.6 |
| 20260506092558 | 42 | 332 | 4.0 | 9.0 | 0.11 | 0.16 | 0.14 | 86 | 1017.7 |
| 20260506092059 | 42 | 330 | 3.0 | 9.0 | 0.14 | 0.16 | 0.14 | 87 | 1017.5 |
| 20260506091600 | 42 | 16 | 2.0 | 7.0 | 0.14 | 0.16 | 0.14 | 88 | 1017.3 |
| 20260506091058 | 42 | 354 | 2.0 | 9.0 | 0.14 | 0.16 | 0.14 | 88 | 1017.2 |
| 20260506090558 | 42 | 340 | 3.0 | 11.0 | 0.14 | 0.16 | 0.14 | 88 | 1017.1 |
| 20260506090100 | 42 | 50 | 3.0 | 13.0 | 0.14 | 0.16 | 0.14 | 87 | 1017.0 |
| 20260506085553 | 42 | 60 | 5.0 | 14.0 | 0.12 | 0.14 | 0.12 | 86 | 1016.9 |
| 20260506085052 | 42 | 42 | 7.0 | 22.0 | 0.12 | 0.14 | 0.12 | 86 | 1017.0 |
| 20260506084552 | 42 | 39 | 9.0 | 22.0 | 0.10 | 0.12 | 0.10 | 84 | 1016.7 |
| 20260506084049 | 43 | 73 | 11.0 | 24.0 | 0.08 | 0.10 | 0.08 | 81 | 1016.6 |
| 20260506083547 | 46 | 27 | 15.0 | 24.0 | 0.05 | 0.07 | 0.05 | 74 | 1016.4 |
| 20260506083046 | 48 | 18 | 11.0 | 20.0 | 0.03 | 0.05 | 0.03 | 71 | 1016.1 |
| 20260506082544 | 49 | 27 | 2.0 | 6.0 | 0.03 | 0.05 | 0.03 | 78 | 1015.3 |
| 20260506082043 | 49 | 345 | 2.0 | 3.0 | 0.00 | 0.02 | 0.00 | 78 | 1014.8 |
| 20260506081542 | 49 | 130 | 0.0 | 0.0 | 0.00 | 0.02 | 0.00 | 77 | 1014.3 |
| 20260506081042 | 49 | 130 | 0.0 | 0.0 | 0.00 | 0.02 | 0.00 | 76 | 1014.4 |
| 20260506080541 | 49 | 130 | 0.0 | 1.0 | 0.00 | 0.02 | 0.00 | 75 | 1014.4 |
| 20260506073035 | 51 | 101 | 0.0 | 2.0 | 0.00 | 0.02 | 0.00 | 70 | 1014.8 |
| 20260506072534 | 51 | 104 | 0.0 | 4.0 | 0.00 | 0.02 | 0.00 | 66 | 1014.9 |
| 20260506072034 | 51 | 196 | 0.0 | 7.0 | 0.00 | 0.02 | 0.00 | 65 | 1014.9 |
| 20260506071535 | 51 | 132 | 1.0 | 7.0 | 0.00 | 0.02 | 0.00 | 65 | 1014.8 |
| 20260506071033 | 51 | 78 | 4.0 | 6.0 | 0.00 | 0.02 | 0.00 | 67 | 1014.8 |
| 20260506070531 | 52 | 75 | 1.0 | 5.0 | 0.00 | 0.02 | 0.00 | 66 | 1014.8 |
| 20260506062025 | 53 | 229 | 1.0 | 6.0 | 0.00 | 0.02 | 0.00 | 58 | 1014.3 |
| 20260506061523 | 53 | 240 | 2.0 | 6.0 | 0.00 | 0.02 | 0.00 | 59 | 1014.2 |
| 20260506061021 | 53 | 248 | 2.0 | 9.0 | 0.00 | 0.02 | 0.00 | 59 | 1014.1 |
| 20260506060521 | 52 | 274 | 5.0 | 9.0 | 0.00 | 0.02 | 0.00 | 60 | 1014.0 |
| 20260506051014 | 51 | 262 | 0.0 | 2.0 | 0.00 | 0.02 | 0.02 | 60 | 1013.3 |
| 20260506050513 | 51 | 217 | 1.0 | 3.0 | 0.00 | 0.02 | 0.02 | 61 | 1013.1 |
| 20260506045010 | 50 | 169 | 0.0 | 2.0 | 0.00 | 0.02 | 0.02 | 62 | 1012.7 |
| 20260506044511 | 50 | 191 | 0.0 | 3.0 | 0.00 | 0.02 | 0.02 | 62 | 1012.7 |
| 20260506044009 | 50 | 217 | 1.0 | 2.0 | 0.00 | 0.02 | 0.02 | 62 | 1012.7 |
| 20260506043513 | 51 | 217 | 0.0 | 2.0 | 0.00 | 0.02 | 0.02 | 61 | 1012.7 |
| 20260506043013 | 51 | 236 | 0.0 | 1.0 | 0.00 | 0.02 | 0.02 | 61 | 1012.7 |
| 20260506042509 | 51 | 251 | 0.0 | 3.0 | 0.00 | 0.02 | 0.02 | 61 | 1012.7 |
| 20260506042009 | 51 | 160 | 0.0 | 3.0 | 0.00 | 0.02 | 0.02 | 61 | 1012.6 |
| 20260506041508 | 51 | 219 | 0.0 | 0.0 | 0.00 | 0.02 | 0.02 | 61 | 1012.7 |
| 20260506041008 | 51 | 218 | 0.0 | 2.0 | 0.00 | 0.02 | 0.02 | 61 | 1012.6 |
| 20260506040508 | 51 | 231 | 0.0 | 3.0 | 0.00 | 0.02 | 0.02 | 61 | 1012.6 |
| 20260506040007 | 51 | 231 | 0.0 | 3.0 | 0.00 | 0.02 | 0.02 | 61 | 1012.6 |
| 20260506035510 | 51 | 182 | 1.0 | 3.0 | 0.00 | 0.02 | 0.02 | 61 | 1012.5 |
| 20260506035007 | 51 | 161 | 1.0 | 3.0 | 0.00 | 0.02 | 0.02 | 61 | 1012.6 |
| 20260506034517 | 51 | 148 | 1.0 | 3.0 | 0.00 | 0.02 | 0.02 | 60 | 1012.5 |
| 20260506034006 | 52 | 222 | 1.0 | 3.0 | 0.00 | 0.02 | 0.02 | 59 | 1012.4 |
| 20260506033505 | 52 | 230 | 1.0 | 3.0 | 0.00 | 0.02 | 0.02 | 59 | 1012.4 |
| 20260506033005 | 52 | 207 | 1.0 | 7.0 | 0.00 | 0.02 | 0.02 | 59 | 1012.3 |
| 20260506032504 | 53 | 201 | 4.0 | 7.0 | 0.00 | 0.02 | 0.02 | 59 | 1012.2 |
| 20260506032007 | 53 | 167 | 4.0 | 8.0 | 0.00 | 0.02 | 0.02 | 59 | 1012.1 |
| 20260506031504 | 53 | 147 | 4.0 | 8.0 | 0.00 | 0.02 | 0.02 | 58 | 1012.0 |
| 20260506031004 | 53 | 155 | 4.0 | 8.0 | 0.00 | 0.02 | 0.02 | 57 | 1011.9 |
| 20260506030505 | 53 | 136 | 4.0 | 9.0 | 0.00 | 0.02 | 0.02 | 56 | 1011.9 |
| 20260506030007 | 53 | 127 | 4.0 | 9.0 | 0.00 | 0.02 | 0.02 | 55 | 1011.8 |
| 20260506025502 | 54 | 170 | 4.0 | 8.0 | 0.00 | 0.02 | 0.02 | 54 | 1011.8 |
| 20260506025002 | 54 | 144 | 3.0 | 11.0 | 0.00 | 0.02 | 0.02 | 54 | 1011.7 |
| 20260506024506 | 54 | 179 | 3.0 | 11.0 | 0.00 | 0.02 | 0.02 | 53 | 1011.7 |
| 20260506024002 | 54 | 165 | 4.0 | 10.0 | 0.00 | 0.02 | 0.02 | 53 | 1011.7 |
| 20260506023502 | 54 | 174 | 3.0 | 8.0 | 0.00 | 0.02 | 0.02 | 53 | 1011.6 |
| 20260506023003 | 55 | 159 | 4.0 | 8.0 | 0.00 | 0.02 | 0.02 | 53 | 1011.4 |
| 20260506022501 | 55 | 162 | 3.0 | 9.0 | 0.00 | 0.02 | 0.02 | 52 | 1011.4 |
| 20260506022002 | 55 | 157 | 5.0 | 10.0 | 0.00 | 0.02 | 0.02 | 51 | 1011.2 |
| 20260506021501 | 56 | 142 | 4.0 | 10.0 | 0.00 | 0.02 | 0.02 | 50 | 1011.3 |
| 20260506021004 | 56 | 145 | 3.0 | 9.0 | 0.00 | 0.02 | 0.02 | 49 | 1011.2 |
| 20260506020601 | 57 | 153 | 5.0 | 12.0 | 0.00 | 0.02 | 0.02 | 48 | 1011.2 |
| 20260506020100 | 58 | 167 | 4.0 | 12.0 | 0.00 | 0.02 | 0.02 | 47 | 1011.1 |
| 20260506015600 | 58 | 174 | 3.0 | 9.0 | 0.00 | 0.02 | 0.02 | 47 | 1011.1 |
| 20260506015100 | 58 | 149 | 3.0 | 10.0 | 0.00 | 0.02 | 0.02 | 47 | 1011.1 |
| 20260506014600 | 59 | 162 | 5.0 | 10.0 | 0.00 | 0.02 | 0.02 | 46 | 1011.1 |
| 20260506014102 | 59 | 167 | 5.0 | 9.0 | 0.00 | 0.02 | 0.02 | 45 | 1011.1 |
| 20260506013604 | 60 | 140 | 2.0 | 8.0 | 0.00 | 0.02 | 0.02 | 46 | 1011.1 |
| 20260506013110 | 60 | 128 | 4.0 | 7.0 | 0.00 | 0.02 | 0.02 | 45 | 1011.0 |
| 20260506012600 | 59 | 167 | 1.0 | 6.0 | 0.00 | 0.02 | 0.02 | 46 | 1011.0 |
| 20260506012059 | 59 | 147 | 3.0 | 7.0 | 0.00 | 0.02 | 0.02 | 46 | 1011.0 |
| 20260506011609 | 60 | 142 | 3.0 | 7.0 | 0.00 | 0.02 | 0.02 | 47 | 1010.9 |
| 20260506011058 | 60 | 153 | 3.0 | 6.0 | 0.00 | 0.02 | 0.02 | 46 | 1010.9 |
| 20260506010558 | 59 | 155 | 2.0 | 7.0 | 0.00 | 0.02 | 0.02 | 47 | 1010.8 |
| 20260506010058 | 60 | 143 | 3.0 | 7.0 | 0.00 | 0.02 | 0.02 | 46 | 1010.8 |
| 20260506005555 | 60 | 120 | 1.0 | 6.0 | 0.00 | 0.02 | 0.02 | 46 | 1010.8 |
| 20260506005057 | 59 | 131 | 1.0 | 7.0 | 0.00 | 0.02 | 0.02 | 47 | 1010.8 |
| 20260506004556 | 60 | 136 | 3.0 | 7.0 | 0.00 | 0.02 | 0.02 | 46 | 1010.8 |
| 20260506004055 | 60 | 87 | 1.0 | 6.0 | 0.00 | 0.02 | 0.02 | 46 | 1010.7 |
| 20260506003555 | 60 | 147 | 3.0 | 8.0 | 0.00 | 0.02 | 0.02 | 47 | 1010.8 |
| 20260506003057 | 60 | 128 | 3.0 | 8.0 | 0.00 | 0.02 | 0.02 | 47 | 1010.8 |
| 20260506002554 | 60 | 116 | 2.0 | 7.0 | 0.00 | 0.02 | 0.02 | 49 | 1010.8 |
| 20260506002053 | 59 | 205 | 2.0 | 7.0 | 0.00 | 0.02 | 0.02 | 50 | 1010.8 |
| 20260506001552 | 59 | 186 | 1.0 | 6.0 | 0.00 | 0.02 | 0.02 | 54 | 1010.7 |
| 20260506001051 | 59 | 94 | 0.0 | 6.0 | 0.00 | 0.02 | 0.02 | 57 | 1010.8 |
| 20260506000550 | 58 | 146 | 1.0 | 6.0 | 0.00 | 0.02 | 0.02 | 72 | 1010.8 |
| 20260506000050 | 55 | 145 | 1.0 | 7.0 | 0.00 | 0.02 | 0.02 | 86 | 1010.8 |
| 20260505235547 | 54 | 139 | 4.0 | 7.0 | 0.00 | 0.02 | 0.02 | 88 | 1010.8 |
| 20260505235047 | 53 | 102 | 2.0 | 6.0 | 0.00 | 0.02 | 0.02 | 90 | 1010.8 |
| 20260505234547 | 53 | 131 | 2.0 | 7.0 | 0.00 | 0.02 | 0.02 | 90 | 1010.8 |
| 20260505234047 | 53 | 143 | 3.0 | 7.0 | 0.00 | 0.02 | 0.02 | 90 | 1010.8 |
| 20260505233547 | 53 | 140 | 3.0 | 5.0 | 0.00 | 0.02 | 0.02 | 90 | 1010.8 |
| 20260505233046 | 53 | 189 | 1.0 | 6.0 | 0.00 | 0.02 | 0.02 | 91 | 1010.8 |
| 20260505232546 | 53 | 137 | 1.0 | 5.0 | 0.00 | 0.02 | 0.02 | 91 | 1010.9 |
| 20260505232049 | 53 | 160 | 0.0 | 4.0 | 0.00 | 0.02 | 0.02 | 91 | 1011.0 |
| 20260505231546 | 52 | 230 | 1.0 | 4.0 | 0.00 | 0.02 | 0.02 | 92 | 1011.1 |
| 20260505231049 | 52 | 141 | 1.0 | 4.0 | 0.01 | 0.02 | 0.02 | 92 | 1011.1 |
| 20260505230546 | 51 | 132 | 0.0 | 6.0 | 0.01 | 0.02 | 0.02 | 92 | 1011.2 |
| 20260505230056 | 51 | 222 | 1.0 | 6.0 | 0.02 | 0.02 | 0.02 | 92 | 1011.2 |
| 20260505225546 | 50 | 251 | 1.0 | 7.0 | 0.02 | 0.02 | 0.02 | 92 | 1011.3 |
| 20260505225044 | 50 | 217 | 1.0 | 7.0 | 0.02 | 0.02 | 0.02 | 91 | 1011.4 |
| 20260505224547 | 50 | 160 | 1.0 | 4.0 | 0.02 | 0.02 | 0.02 | 92 | 1011.4 |
| 20260505224045 | 50 | 160 | 1.0 | 4.0 | 0.02 | 0.02 | 0.02 | 92 | 1011.6 |
| 20260505223543 | 49 | 150 | 1.0 | 4.0 | 0.02 | 0.02 | 0.02 | 92 | 1011.6 |
| 20260505223055 | 49 | 144 | 2.0 | 4.0 | 0.02 | 0.02 | 0.02 | 92 | 1011.7 |
| 20260505222542 | 49 | 150 | 1.0 | 5.0 | 0.02 | 0.02 | 0.02 | 91 | 1011.7 |
| 20260505222042 | 49 | 87 | 3.0 | 5.0 | 0.02 | 0.02 | 0.02 | 89 | 1011.7 |
| 20260505221540 | 50 | 134 | 3.0 | 5.0 | 0.02 | 0.02 | 0.02 | 87 | 1011.8 |
| 20260505221042 | 52 | 190 | 1.0 | 6.0 | 0.01 | 0.01 | 0.01 | 84 | 1011.9 |
| 20260505220539 | 55 | 109 | 3.0 | 6.0 | 0.01 | 0.01 | 0.01 | 56 | 1011.9 |
| 20260505220042 | 55 | 12 | 0.0 | 5.0 | 0.00 | 0.00 | 0.00 | 55 | 1011.9 |
| 20260505215537 | 56 | 116 | 2.0 | 4.0 | 0.00 | 0.00 | 0.00 | 53 | 1011.9 |
| 20260505215037 | 56 | 144 | 0.0 | 4.0 | 0.00 | 0.00 | 0.00 | 49 | 1012.1 |
| 20260505214537 | 56 | 104 | 0.0 | 4.0 | 0.00 | 0.00 | 0.00 | 47 | 1012.1 |
| 20260505214037 | 56 | 135 | 1.0 | 4.0 | 0.00 | 0.00 | 0.00 | 47 | 1012.1 |
| 20260505213535 | 56 | 134 | 0.0 | 7.0 | 0.00 | 0.00 | 0.00 | 48 | 1012.0 |
| 20260505213049 | 56 | 136 | 3.0 | 7.0 | 0.00 | 0.00 | 0.00 | 48 | 1011.9 |
| 20260505212538 | 56 | 152 | 2.0 | 6.0 | 0.00 | 0.00 | 0.00 | 49 | 1011.9 |
| 20260505212034 | 56 | 146 | 3.0 | 9.0 | 0.00 | 0.00 | 0.00 | 49 | 1011.9 |
| 20260505211534 | 56 | 181 | 3.0 | 8.0 | 0.00 | 0.00 | 0.00 | 49 | 1011.8 |
| 20260505211034 | 56 | 169 | 3.0 | 8.0 | 0.00 | 0.00 | 0.00 | 48 | 1011.8 |
| 20260505210536 | 56 | 176 | 3.0 | 8.0 | 0.00 | 0.00 | 0.00 | 49 | 1011.8 |
| 20260505210032 | 55 | 145 | 3.0 | 9.0 | 0.00 | 0.00 | 0.00 | 49 | 1011.7 |
| 20260505205532 | 55 | 146 | 3.0 | 11.0 | 0.00 | 0.00 | 0.00 | 50 | 1011.7 |
| 20260505205032 | 55 | 143 | 7.0 | 11.0 | 0.00 | 0.00 | 0.00 | 50 | 1011.7 |
| 20260505204532 | 55 | 134 | 4.0 | 8.0 | 0.00 | 0.00 | 0.00 | 50 | 1011.7 |
| 20260505204033 | 55 | 141 | 3.0 | 11.0 | 0.00 | 0.00 | 0.00 | 51 | 1011.7 |
| 20260505203531 | 54 | 137 | 4.0 | 11.0 | 0.00 | 0.00 | 0.00 | 50 | 1011.7 |
| 20260505203042 | 54 | 159 | 5.0 | 10.0 | 0.00 | 0.00 | 0.00 | 51 | 1011.7 |
| 20260505202531 | 54 | 158 | 4.0 | 9.0 | 0.00 | 0.00 | 0.00 | 51 | 1011.7 |
| 20260505202030 | 54 | 161 | 4.0 | 9.0 | 0.00 | 0.00 | 0.00 | 52 | 1011.7 |
| 20260505201529 | 54 | 193 | 4.0 | 10.0 | 0.00 | 0.00 | 0.00 | 52 | 1011.8 |
| 20260505201029 | 54 | 158 | 4.0 | 9.0 | 0.00 | 0.00 | 0.00 | 52 | 1011.8 |
| 20260505200531 | 54 | 161 | 4.0 | 12.0 | 0.00 | 0.00 | 0.00 | 53 | 1011.7 |
| 20260505200034 | 54 | 153 | 7.0 | 13.0 | 0.00 | 0.00 | 0.00 | 53 | 1011.7 |
| 20260505195528 | 54 | 131 | 6.0 | 13.0 | 0.00 | 0.00 | 0.00 | 53 | 1011.8 |
| 20260505195027 | 54 | 226 | 6.0 | 14.0 | 0.00 | 0.00 | 0.00 | 53 | 1011.7 |
| 20260505194527 | 54 | 149 | 8.0 | 14.0 | 0.00 | 0.00 | 0.00 | 52 | 1011.7 |
| 20260505194029 | 54 | 140 | 5.0 | 13.0 | 0.00 | 0.00 | 0.00 | 53 | 1011.6 |
| 20260505193527 | 54 | 167 | 5.0 | 13.0 | 0.00 | 0.00 | 0.00 | 52 | 1011.7 |
| 20260505193026 | 54 | 126 | 8.0 | 13.0 | 0.00 | 0.00 | 0.00 | 53 | 1011.6 |
| 20260505192527 | 54 | 135 | 4.0 | 12.0 | 0.00 | 0.00 | 0.00 | 54 | 1011.7 |
| 20260505192026 | 54 | 157 | 6.0 | 15.0 | 0.00 | 0.00 | 0.00 | 54 | 1011.5 |
| 20260505191526 | 54 | 137 | 6.0 | 15.0 | 0.00 | 0.00 | 0.00 | 54 | 1011.5 |
| 20260505191026 | 53 | 128 | 9.0 | 16.0 | 0.00 | 0.00 | 0.00 | 53 | 1011.5 |
| 20260505190526 | 53 | 150 | 8.0 | 16.0 | 0.00 | 0.00 | 0.00 | 54 | 1011.4 |
| 20260505190024 | 53 | 162 | 7.0 | 14.0 | 0.00 | 0.00 | 0.00 | 54 | 1011.5 |
| 20260505185527 | 53 | 153 | 7.0 | 16.0 | 0.00 | 0.00 | 0.00 | 54 | 1011.5 |
| 20260505185025 | 53 | 182 | 8.0 | 17.0 | 0.00 | 0.00 | 0.00 | 54 | 1011.5 |
| 20260505184525 | 54 | 148 | 10.0 | 17.0 | 0.00 | 0.00 | 0.00 | 53 | 1011.5 |
| 20260505184025 | 54 | 227 | 7.0 | 17.0 | 0.00 | 0.00 | 0.00 | 54 | 1011.4 |
| 20260505183523 | 54 | 148 | 10.0 | 17.0 | 0.00 | 0.00 | 0.00 | 54 | 1011.4 |
| 20260505183025 | 54 | 135 | 4.0 | 18.0 | 0.00 | 0.00 | 0.00 | 55 | 1011.4 |
| 20260505182523 | 54 | 122 | 10.0 | 19.0 | 0.00 | 0.00 | 0.00 | 54 | 1011.4 |
| 20260505182022 | 54 | 133 | 8.0 | 18.0 | 0.00 | 0.00 | 0.00 | 56 | 1011.3 |
| 20260505181522 | 53 | 151 | 9.0 | 17.0 | 0.00 | 0.00 | 0.00 | 57 | 1011.2 |
| 20260505181023 | 53 | 98 | 10.0 | 16.0 | 0.00 | 0.00 | 0.00 | 57 | 1011.2 |
| 20260505180522 | 52 | 147 | 7.0 | 15.0 | 0.00 | 0.00 | 0.00 | 58 | 1011.1 |
| 20260505180021 | 52 | 137 | 7.0 | 16.0 | 0.00 | 0.00 | 0.00 | 59 | 1011.3 |
| 20260505175522 | 52 | 124 | 9.0 | 20.0 | 0.00 | 0.00 | 0.00 | 59 | 1011.3 |
| 20260505175022 | 51 | 195 | 10.0 | 20.0 | 0.00 | 0.00 | 0.00 | 59 | 1011.3 |
| 20260505174521 | 51 | 139 | 10.0 | 17.0 | 0.00 | 0.00 | 0.00 | 59 | 1011.3 |
| 20260505174020 | 51 | 181 | 8.0 | 18.0 | 0.00 | 0.00 | 0.00 | 60 | 1011.3 |
| 20260505173519 | 51 | 169 | 8.0 | 17.0 | 0.00 | 0.00 | 0.00 | 61 | 1011.2 |
| 20260505173036 | 51 | 105 | 8.0 | 17.0 | 0.00 | 0.00 | 0.00 | 60 | 1011.2 |
| 20260505172518 | 51 | 132 | 10.0 | 18.0 | 0.00 | 0.00 | 0.00 | 61 | 1011.2 |
| 20260505172017 | 51 | 198 | 8.0 | 18.0 | 0.00 | 0.00 | 0.00 | 61 | 1011.4 |
| 20260505171519 | 51 | 134 | 8.0 | 18.0 | 0.00 | 0.00 | 0.00 | 61 | 1011.3 |
| 20260505171016 | 51 | 124 | 10.0 | 18.0 | 0.00 | 0.00 | 0.00 | 60 | 1011.2 |
| 20260505170516 | 51 | 172 | 7.0 | 16.0 | 0.00 | 0.00 | 0.00 | 60 | 1011.2 |
| 20260505170023 | 51 | 158 | 5.0 | 16.0 | 0.00 | 0.00 | 0.00 | 62 | 1011.1 |
| 20260505165514 | 51 | 141 | 6.0 | 17.0 | 0.00 | 0.00 | 0.00 | 62 | 1011.1 |
| 20260505165014 | 50 | 176 | 4.0 | 18.0 | 0.00 | 0.00 | 0.00 | 63 | 1011.1 |
| 20260505164535 | 50 | 179 | 9.0 | 21.0 | 0.00 | 0.00 | 0.00 | 61 | 1011.1 |
| 20260505164013 | 50 | 129 | 10.0 | 19.0 | 0.00 | 0.00 | 0.00 | 62 | 1011.1 |
| 20260505163513 | 50 | 159 | 8.0 | 20.0 | 0.00 | 0.00 | 0.00 | 63 | 1011.1 |
| 20260505163014 | 50 | 141 | 9.0 | 20.0 | 0.00 | 0.00 | 0.00 | 64 | 1011.0 |
| 20260505162510 | 50 | 146 | 7.0 | 18.0 | 0.00 | 0.00 | 0.00 | 64 | 1011.0 |
| 20260505162009 | 50 | 169 | 8.0 | 16.0 | 0.00 | 0.00 | 0.00 | 64 | 1011.0 |
| 20260505161508 | 51 | 135 | 9.0 | 16.0 | 0.00 | 0.00 | 0.00 | 64 | 1011.0 |
| 20260505161009 | 51 | 146 | 9.0 | 16.0 | 0.00 | 0.00 | 0.00 | 64 | 1011.0 |
| 20260505160506 | 51 | 160 | 5.0 | 13.0 | 0.00 | 0.00 | 0.00 | 64 | 1011.0 |